Weather History for KSUE - July, 2013

Change the Weather History Date:

Friday, July 26, 2013

  Actual Average Record
Temperature  
Mean Temperature 63 °F -  
Max Temperature 69 °F 78 °F 97 °F (1941)
Min Temperature 55 °F 59 °F 45 °F (1913)
Degree Days  
Heating Degree Days 2    
Growing Degree Days 13 (Base 50)    
Moisture  
Dew Point 60 °F    
Average Humidity 89    
Maximum Humidity 94    
Minimum Humidity 77    
Precipitation  
Precipitation 1.31 in - - ()
Sea Level Pressure  
Sea Level Pressure 29.90 in    
Wind  
Wind Speed 7 mph (SSW)    
Max Wind Speed 18 mph    
Max Gust Speed 26 mph    
Visibility 10 miles    
Events Thunderstorm    
Averages and records for this station are not official NWS values.
T = Trace of Precipitation, MM = Missing Value Source: NWS Daily Summary

Daily Weather History Graph

Daily Weather History Graph

Search for Another Location

Airport or City:

Trip Planner

Search our weather history database for the weather conditions in past years. The results will help you decide how hot, cold, wet, or windy it might be!

Date:

Astronomy

Jul. 26, 2013 Rise Set
Actual Time 5:29 AM CDT 8:22 PM CDT
Civil Twilight 4:54 AM CDT 8:56 PM CDT
Nautical Twilight 4:10 AM CDT 9:40 PM CDT
Astronomical Twilight 3:19 AM CDT 10:31 PM CDT
Moon 10:20 PM CDT (7/26) 10:19 AM CDT (7/26)
Length of Visible Light 16h 02m
Length of Day
14h 53m
Waning Gibbous, 80% of the Moon is Illuminated
Jul 26
Waning Gibbous
Jul 29
Last Quarter
Aug 6
New
Aug 14
First Quarter
Aug 20
Full

Hourly Weather History & Observations

Time (CDT) Temp. Dew Point Humidity Pressure Visibility Wind Dir Wind Speed Gust Speed Precip Events Conditions
12:15 AM 64.4 °F 60.8 °F 88% 29.96 in 10.0 mi South 8.1 mph - N/A   Mostly Cloudy
12:35 AM 64.4 °F 60.8 °F 88% 29.96 in 10.0 mi South 6.9 mph - N/A   Scattered Clouds
12:55 AM 64.4 °F 60.8 °F 88% 29.96 in 10.0 mi South 5.8 mph - N/A   Clear
1:15 AM 64.4 °F 60.8 °F 88% 29.95 in 10.0 mi South 5.8 mph - N/A   Partly Cloudy
1:35 AM 62.6 °F 60.8 °F 94% 29.95 in 10.0 mi South 3.5 mph - N/A   Scattered Clouds
1:55 AM 62.6 °F 60.8 °F 94% 29.95 in 10.0 mi South 4.6 mph - N/A   Overcast
2:15 AM 62.6 °F 60.8 °F 94% 29.95 in 10.0 mi South 5.8 mph - N/A   Overcast
2:35 AM 62.6 °F 60.8 °F 94% 29.95 in 10.0 mi South 4.6 mph - N/A   Mostly Cloudy
2:55 AM 62.6 °F 60.8 °F 94% 29.94 in 10.0 mi SSW 5.8 mph - N/A   Partly Cloudy
3:15 AM 62.6 °F 60.8 °F 94% 29.93 in 10.0 mi SSW 6.9 mph - N/A   Mostly Cloudy
3:35 AM 62.6 °F 60.8 °F 94% 29.93 in 10.0 mi SSW 6.9 mph - N/A   Partly Cloudy
3:55 AM 62.6 °F 60.8 °F 94% 29.93 in 10.0 mi SSW 6.9 mph - N/A   Partly Cloudy
4:15 AM 62.6 °F 60.8 °F 94% 29.93 in 10.0 mi SSW 9.2 mph - N/A   Clear
4:35 AM 62.6 °F 60.8 °F 94% 29.92 in 10.0 mi South 6.9 mph - N/A   Clear
4:55 AM 62.6 °F 60.8 °F 94% 29.92 in 10.0 mi SSW 9.2 mph - N/A   Clear
5:15 AM 62.6 °F 60.8 °F 94% 29.92 in 10.0 mi South 9.2 mph - N/A   Clear
5:35 AM 62.6 °F 60.8 °F 94% 29.92 in 10.0 mi SSW 9.2 mph - N/A   Clear
5:55 AM 62.6 °F 60.8 °F 94% 29.92 in 10.0 mi SSW 9.2 mph - N/A   Clear
6:15 AM 62.6 °F 60.8 °F 94% 29.93 in 10.0 mi South 6.9 mph - N/A   Clear
6:35 AM 62.6 °F 60.8 °F 94% 29.93 in 10.0 mi South 6.9 mph - N/A   Clear
6:55 AM 64.4 °F 60.8 °F 88% 29.93 in 10.0 mi South 6.9 mph - N/A   Clear
7:15 AM 64.4 °F 60.8 °F 88% 29.93 in 10.0 mi SSW 10.4 mph - N/A   Mostly Cloudy
7:35 AM 66.2 °F 60.8 °F 83% 29.93 in 10.0 mi SSW 10.4 mph - N/A   Overcast
7:55 AM 66.2 °F 62.6 °F 88% 29.93 in 10.0 mi SSW 9.2 mph - N/A   Overcast
8:15 AM 66.2 °F 62.6 °F 88% 29.92 in 10.0 mi SSW 9.2 mph - N/A   Mostly Cloudy
8:35 AM 68.0 °F 62.6 °F 83% 29.93 in 10.0 mi SW 11.5 mph - N/A   Overcast
8:55 AM 68.0 °F 62.6 °F 83% 29.92 in 10.0 mi SW 10.4 mph - N/A   Overcast
9:15 AM 69.8 °F 62.6 °F 78% 29.92 in 10.0 mi SW 8.1 mph - N/A   Overcast
9:35 AM 69.8 °F 62.6 °F 78% 29.91 in 10.0 mi SW 8.1 mph - N/A Thunderstorm Overcast
9:55 AM 69.8 °F 62.6 °F 78% 29.91 in 10.0 mi WSW 10.4 mph - N/A   Overcast
10:15 AM 69.8 °F 62.6 °F 78% 29.90 in 10.0 mi WSW 8.1 mph - N/A   Overcast
10:35 AM 69.8 °F 62.6 °F 78% 29.90 in 10.0 mi SW 5.8 mph - N/A Thunderstorm Overcast
10:55 AM 66.2 °F 62.6 °F 88% 29.90 in 3.0 mi WSW 4.6 mph - 0.17 in Thunderstorm Thunderstorm
11:15 AM 66.2 °F 64.4 °F 94% 29.89 in 10.0 mi West 8.1 mph - N/A Thunderstorm Overcast
11:35 AM 66.2 °F 64.4 °F 94% 29.88 in 10.0 mi WSW 3.5 mph - N/A   Overcast
11:55 AM 66.2 °F 64.4 °F 94% 29.88 in 10.0 mi WSW 3.5 mph - N/A   Overcast
12:15 PM 66.2 °F 64.4 °F 94% 29.87 in 10.0 mi Calm Calm - N/A   Overcast
12:35 PM 66.2 °F 64.4 °F 94% 29.86 in 7.0 mi Calm Calm - N/A   Overcast
12:55 PM 66.2 °F 62.6 °F 88% 29.85 in 10.0 mi South 9.2 mph - N/A   Overcast
1:15 PM 66.2 °F 62.6 °F 88% 29.84 in 10.0 mi South 15.0 mph 20.7 mph N/A   Overcast
1:35 PM 66.2 °F 62.6 °F 88% 29.83 in 10.0 mi South 15.0 mph 21.9 mph N/A Thunderstorm Overcast
1:55 PM 66.2 °F 64.4 °F 94% 29.83 in 10.0 mi South 17.3 mph 26.5 mph N/A   Overcast
2:15 PM 64.4 °F 60.8 °F 88% 29.87 in 9.0 mi NW 17.3 mph 24.2 mph 0.13 in Thunderstorm Thunderstorm
2:35 PM 60.8 °F 57.2 °F 88% 29.88 in 3.0 mi Calm Calm - 1.02 in Thunderstorm Thunderstorm
2:55 PM 60.8 °F 57.2 °F 88% 29.87 in 10.0 mi ESE 5.8 mph - 1.09 in Thunderstorm Overcast
3:15 PM 60.8 °F 57.2 °F 88% 29.87 in 10.0 mi ESE 6.9 mph - 0.02 in Thunderstorm Thunderstorm
3:35 PM 59.0 °F 57.2 °F 94% 29.87 in 10.0 mi SE 4.6 mph - 0.05 in   Overcast
3:55 PM 60.8 °F 59.0 °F 94% 29.88 in 10.0 mi East 4.6 mph - 0.05 in   Overcast
4:15 PM 60.8 °F 59.0 °F 94% 29.87 in 10.0 mi ESE 6.9 mph - N/A   Overcast
4:35 PM 62.6 °F 60.8 °F 94% 29.87 in 10.0 mi SE 6.9 mph - N/A   Overcast
4:55 PM 62.6 °F 60.8 °F 94% 29.87 in 10.0 mi SSE 9.2 mph - N/A   Mostly Cloudy
5:15 PM 62.6 °F 60.8 °F 94% 29.87 in 10.0 mi SSE 8.1 mph - N/A   Mostly Cloudy
5:35 PM 62.6 °F 59.0 °F 88% 29.87 in 10.0 mi SSE 8.1 mph - N/A   Overcast
5:55 PM 64.4 °F 60.8 °F 88% 29.85 in 10.0 mi SSE 8.1 mph - N/A   Overcast
6:15 PM 64.4 °F 59.0 °F 83% 29.85 in 10.0 mi SSE 4.6 mph - N/A   Partly Cloudy
6:35 PM 64.4 °F 57.2 °F 77% 29.85 in 10.0 mi WSW 4.6 mph - N/A   Clear
6:55 PM 64.4 °F 57.2 °F 77% 29.86 in 10.0 mi West 4.6 mph - N/A   Clear
7:15 PM 62.6 °F 57.2 °F 82% 29.88 in 10.0 mi NNW 6.9 mph - N/A   Clear
7:35 PM 62.6 °F 57.2 °F 82% 29.89 in 10.0 mi NNW 5.8 mph - N/A   Partly Cloudy
7:55 PM 60.8 °F 59.0 °F 94% 29.87 in 10.0 mi ENE 6.9 mph - N/A   Partly Cloudy
8:15 PM 62.6 °F 59.0 °F 88% 29.87 in 10.0 mi Calm Calm - N/A   Mostly Cloudy
8:35 PM 62.6 °F 59.0 °F 88% 29.88 in 10.0 mi WSW 5.8 mph - N/A   Overcast
8:55 PM 60.8 °F 59.0 °F 94% 29.88 in 10.0 mi West 4.6 mph - N/A   Overcast
9:15 PM 60.8 °F 59.0 °F 94% 29.88 in 10.0 mi WSW 3.5 mph - N/A   Overcast
9:35 PM 60.8 °F 57.2 °F 88% 29.89 in 10.0 mi WNW 5.8 mph - N/A   Scattered Clouds
9:55 PM 60.8 °F 55.4 °F 82% 29.89 in 10.0 mi NNW 11.5 mph - N/A   Scattered Clouds
10:15 PM 59.0 °F 55.4 °F 88% 29.89 in 10.0 mi NW 10.4 mph - N/A   Scattered Clouds
10:35 PM 57.2 °F 55.4 °F 94% 29.88 in 10.0 mi NNW 9.2 mph - N/A   Mostly Cloudy
10:55 PM 59.0 °F 55.4 °F 88% 29.88 in 10.0 mi NNW 15.0 mph 18.4 mph N/A   Overcast
11:15 PM 59.0 °F 55.4 °F 88% 29.88 in 10.0 mi NNW 13.8 mph 20.7 mph N/A   Overcast
11:35 PM 57.2 °F 53.6 °F 88% 29.89 in 10.0 mi NNW 18.4 mph 23.0 mph N/A   Overcast
11:55 PM 55.4 °F 53.6 °F 94% 29.89 in 10.0 mi NNW 16.1 mph - N/A   Overcast